Wind_Speed
4 3 8 6 8 9 12 21 24 16 13 12 10 12 13 9 9 12 14 14 14 14 13 13 13 12 12 12 13 13 12 12 11
3 5 9 9 11 7 12 20 26 22 17 13 10 13 14 13 12 13 14 15 15 12 12 13 13 11 11 11 13 12 12 11 10
7 11 9 6 6 9 16 22 25 27 20 15 18 15 11 13 13 14 14 16 15 14 12 11 11 11 11 11 11 11 11 10 7
6 8 6 7 8 14 19 22 23 22 22 25 31 22 13 9 16 14 14 15 14 13 12 13 12 12 11 11 11 13 12 11 8
12 11 13 15 15 19 15 15 15 21 23 28 33 19 14 6 7 13 18 16 16 11 11 12 11 10 8 9 10 13 14 12 9
16 17 17 20 22 20 14 11 16 22 27 24 9 15 13 10 12 16 19 21 17 14 12 12 11 8 6 5 6 6 7 10 9
24 23 23 25 27 28 25 20 23 27 30 24 12 8 9 13 19 20 22 21 21 19 15 15 13 10 9 7 6 7 8 9 9
28 27 26 31 32 32 31 27 25 26 25 18 21 14 15 18 19 19 24 23 23 20 19 18 17 15 13 11 11 11 11 12 12
28 33 35 36 38 33 28 26 23 23 23 19 21 16 19 18 19 19 20 20 21 19 18 19 19 19 16 15 16 16 14 13 12
33 39 30 34 38 37 40 36 39 35 33 24 27 27 26 23 21 21 21 23 23 21 21 20 19 19 19 19 18 17 16 16 15
38 37 40 39 37 36 39 34 23 21 19 30 30 36 31 27 25 31 21 31 26 26 22 20 20 20 21 20 19 16 17 18 17
39 34 34 34 35 38 37 36 33 27 23 23 30 37 33 26 26 29 27 19 27 27 25 24 24 25 25 23 22 22 23 23 21
35 35 35 34 37 40 43 38 36 30 31 28 27 37 35 43 40 35 32 30 33 33 34 32 30 30 31 30 29 32 30 29 29
36 38 40 40 40 40 40 42 40 37 34 38 39 39 38 40 41 40 41 38 35 36 36 36 36 36 34 33 33 35 38 35 34
35 39 40 41 43 42 42 41 41 41 41 40 40 42 42 40 45 47 48 48 46 42 40 40 41 44 44 40 39 42 42 42 43
38 40 43 45 48 46 47 48 47 45 44 46 46 45 46 46 50 50 51 53 53 51 49 44 44 47 49 47 50 46 46 48 54
40 41 42 43 45 46 44 47 48 47 45 49 52 53 53 52 48 47 49 50 49 49 50 50 47 48 50 54 53 50 51 54 64
40 42 43 45 46 47 47 48 50 51 50 50 50 54 55 54 55 52 50 46 51 53 51 50 46 45 47 49 53 55 55 55 59
42 44 46 48 49 50 50 51 52 51 52 51 45 45 50 52 54 55 57 50 48 50 50 50 46 40 41 43 45 47 49 52 50
46 47 50 53 54 53 52 53 53 56 55 51 48 47 43 44 48 54 52 54 50 48 50 49 45 40 40 39 39 43 45 46 44
Wind_Direction
275 3 341 354 10 22 352 347 346 337 324 307 302 303 296 293 286 278 270 266 257 239 235 234 229 230 237 249 255 255 254 258 260
310 305 290 318 338 5 331 333 332 331 320 302 285 287 293 290 295 289 274 260 257 248 238 235 239 237 236 239 242 249 253 258 257
276 276 310 330 321 328 322 328 318 316 317 276 266 259 277 292 292 292 280 264 248 244 236 236 239 236 235 237 238 243 252 253 255
276 294 271 262 267 305 324 324 324 309 296 289 292 222 239 260 280 266 272 269 259 248 231 221 222 230 236 235 238 241 247 245 231
209 220 236 254 270 306 317 321 326 336 324 310 286 231 214 217 245 264 261 260 252 241 230 214 212 217 226 233 234 230 234 227 217
233 241 251 267 280 294 320 299 323 331 334 335 290 246 216 234 243 245 246 248 249 243 231 212 188 192 200 208 216 216 203 206 204
263 261 265 272 279 291 292 307 313 315 323 338 327 250 222 225 232 239 240 237 230 221 219 212 203 198 198 206 214 201 194 194 196
274 270 280 281 282 292 304 305 303 315 307 311 300 256 256 249 248 243 242 239 231 222 220 222 223 221 223 223 221 225 217 204 203
275 272 274 284 286 291 292 301 312 315 303 289 288 271 259 265 264 251 253 247 238 231 229 232 231 233 227 231 223 220 221 223 229
280 293 285 283 289 288 286 285 286 281 285 283 277 254 252 253 257 257 249 249 241 229 223 224 237 241 237 235 233 231 232 234 238
273 274 280 285 285 284 291 290 291 296 279 256 262 254 249 253 260 266 282 255 240 238 234 234 234 237 246 249 249 253 250 246 246
275 276 276 276 275 279 284 284 284 276 281 268 249 238 241 245 259 253 257 265 241 251 246 245 247 251 246 245 250 248 250 249 250
272 271 269 267 270 275 282 279 275 272 268 262 246 225 254 266 274 267 262 252 249 250 257 251 251 248 253 254 253 253 249 248 248
267 266 268 269 267 269 271 274 276 275 269 269 266 262 263 263 265 262 262 259 254 252 247 251 252 256 250 253 257 259 260 257 255
263 266 267 267 269 271 271 271 270 269 266 264 262 266 267 266 265 263 257 258 259 255 250 250 249 249 252 255 254 257 268 274 262
269 268 268 272 274 274 275 275 273 270 269 264 261 258 260 259 257 259 264 261 261 263 264 258 253 251 251 254 260 260 268 272 269
273 270 270 271 274 276 277 277 275 272 265 264 260 257 257 260 258 256 255 259 262 261 263 268 260 254 252 250 252 256 261 268 274
277 278 279 280 280 279 279 278 275 272 272 264 257 258 258 258 259 260 257 257 255 257 260 263 263 259 254 249 249 251 255 266 276
280 278 280 280 279 280 280 280 276 275 275 271 263 255 252 251 250 254 257 257 252 250 255 259 261 262 262 258 252 250 255 260 267
282 283 282 282 282 279 276 278 277 274 271 268 266 260 256 256 250 243 249 252 250 247 250 254 258 260 265 264 257 253 251 256 262
Height
5941 5940 5940 5939 5938 5937 5936 5933 5932 5932 5930 5928 5929 5929 5928 5927 5927 5929 5930 5930 5931 5930 5930 5931 5932 5933 5934 5935 5935 5935 5935 5935 5936
5939 5940 5939 5937 5936 5935 5935 5933 5930 5928 5927 5925 5925 5925 5926 5926 5925 5925 5924 5925 5927 5928 5928 5928 5928 5929 5930 5931 5932 5932 5931 5932 5932
5936 5935 5934 5934 5934 5934 5934 5932 5928 5925 5923 5920 5919 5920 5920 5922 5923 5924 5923 5922 5921 5923 5924 5925 5926 5926 5926 5927 5928 5929 5929 5929 5929
5931 5931 5931 5931 5931 5931 5931 5928 5924 5920 5917 5913 5907 5901 5910 5913 5917 5921 5921 5922 5920 5919 5919 5920 5921 5923 5923 5923 5924 5924 5926 5926 5927
5925 5927 5927 5927 5927 5928 5926 5924 5921 5915 5911 5907 5899 5897 5902 5906 5912 5916 5919 5920 5919 5917 5916 5917 5917 5919 5919 5919 5920 5921 5921 5921 5923
5922 5922 5922 5923 5923 5924 5922 5920 5917 5912 5906 5901 5893 5898 5901 5902 5907 5913 5916 5916 5916 5915 5914 5915 5914 5916 5917 5916 5916 5916 5917 5917 5920
5919 5918 5918 5917 5917 5917 5918 5916 5912 5908 5903 5900 5900 5900 5900 5902 5906 5907 5910 5911 5911 5912 5912 5913 5912 5914 5914 5914 5915 5915 5915 5916 5917
5913 5913 5913 5912 5912 5912 5911 5910 5908 5906 5902 5903 5904 5903 5903 5904 5905 5906 5908 5909 5907 5907 5908 5910 5910 5911 5912 5912 5913 5914 5914 5915 5915
5907 5905 5905 5905 5905 5906 5906 5905 5904 5901 5901 5899 5898 5898 5899 5903 5907 5907 5907 5907 5906 5905 5906 5908 5909 5910 5909 5910 5910 5910 5911 5913 5914
5900 5896 5896 5896 5897 5898 5899 5900 5900 5902 5901 5900 5898 5898 5897 5899 5901 5901 5903 5904 5905 5902 5900 5902 5906 5906 5906 5906 5906 5908 5910 5911 5912
5891 5891 5890 5889 5889 5888 5889 5891 5892 5891 5893 5895 5895 5893 5894 5895 5897 5897 5898 5899 5901 5899 5898 5900 5897 5900 5903 5904 5905 5907 5908 5908 5908
5879 5880 5880 5881 5880 5878 5880 5881 5882 5882 5883 5882 5885 5885 5885 5886 5889 5890 5892 5891 5893 5894 5893 5894 5896 5896 5896 5899 5901 5901 5901 5902 5903
5867 5868 5869 5870 5871 5870 5868 5869 5870 5871 5872 5875 5876 5876 5876 5875 5875 5879 5880 5882 5883 5885 5884 5885 5887 5888 5890 5892 5894 5894 5892 5894 5895
5857 5858 5857 5857 5857 5858 5858 5857 5858 5860 5862 5861 5861 5862 5863 5863 5863 5864 5865 5867 5869 5872 5874 5875 5878 5879 5883 5883 5885 5886 5887 5887 5887
5846 5844 5844 5844 5844 5845 5845 5846 5847 5849 5851 5851 5850 5849 5850 5850 5850 5849 5851 5854 5856 5858 5862 5864 5866 5868 5873 5873 5874 5876 5877 5879 5878
5837 5836 5835 5833 5831 5833 5833 5832 5833 5836 5838 5836 5837 5837 5837 5837 5836 5837 5838 5839 5842 5845 5848 5851 5854 5857 5859 5862 5860 5864 5867 5865 5864
5822 5822 5821 5821 5819 5817 5818 5815 5815 5816 5820 5820 5819 5821 5823 5823 5823 5824 5826 5827 5828 5831 5834 5836 5840 5844 5846 5849 5852 5855 5855 5854 5839
5810 5807 5805 5803 5803 5802 5803 5802 5800 5797 5798 5801 5802 5801 5804 5806 5808 5809 5811 5813 5815 5819 5821 5824 5826 5828 5832 5835 5840 5846 5844 5843 5840
5796 5794 5792 5789 5786 5784 5783 5781 5780 5781 5778 5777 5782 5785 5785 5787 5791 5792 5793 5798 5800 5804 5808 5811 5814 5815 5818 5822 5826 5830 5834 5834 5834
5780 5777 5774 5771 5768 5766 5764 5763 5762 5760 5758 5757 5759 5763 5769 5768 5770 5773 5777 5782 5786 5790 5794 5798 5800 5803 5805 5810 5814 5818 5819 5821 5823